DW9936 Weather Reports


time (UTC)temp
F
wind
direction
speed
knots
gust
knots
rain 1hr
in
rain 24hr
in
rain mn
in
humidity
%
barometer
mb
20260901140034 82 321 2.6 7.0 0.00 0.00 0.00 33 1018.8
20260901134550 81 317 0.9 5.2 0.00 0.00 0.00 36 1019.0
20260901133032 81 336 0.9 8.7 0.00 0.00 0.00 35 1019.0
20260901131533 80 346 0.9 7.0 0.00 0.00 0.00 37 1019.2
20260901130032 80 293 0.9 7.0 0.00 0.00 0.00 39 1019.3
20260901124531 81 329 2.6 8.7 0.00 0.00 0.00 36 1019.3
20260901123025 80 349 1.7 11.3 0.00 0.00 0.00 38 1019.4
20260901121524 79 332 0.0 3.5 0.00 0.00 0.00 40 1019.4
20260901120024 78 323 0.9 6.1 0.00 0.00 0.00 40 1019.5
20260901114526 78 132 0.0 10.4 0.00 0.00 0.00 40 1019.6
20260901113020 78 321 1.7 8.7 0.00 0.00 0.00 41 1019.7
20260901111519 77 325 1.7 7.8 0.00 0.00 0.00 41 1019.7
20260901110018 78 334 1.7 10.4 0.00 0.00 0.00 42 1019.8
20260901104518 78 253 1.7 11.3 0.00 0.00 0.00 42 1019.9
20260901103017 78 333 2.6 8.7 0.00 0.00 0.00 42 1019.9
20260901101514 77 302 0.9 5.2 0.00 0.00 0.00 44 1019.9
20260901100014 77 291 0.9 4.3 0.00 0.00 0.00 46 1019.9
20260901094513 76 141 0.0 5.2 0.00 0.00 0.00 47 1020.0
20260901093019 77 331 0.0 2.6 0.00 0.00 0.00 46 1020.0
20260901091511 77 325 0.0 3.5 0.00 0.00 0.00 48 1020.0
20260901090013 75 342 0.0 7.8 0.00 0.00 0.00 51 1020.0
20260901084524 75 322 0.0 7.8 0.00 0.00 0.00 50 1020.1
20260901083008 75 315 0.0 1.7 0.00 0.00 0.00 51 1020.2
20260901081506 76 299 1.7 8.7 0.00 0.00 0.00 47 1020.1
20260901080006 76 313 0.0 4.3 0.00 0.00 0.00 50 1020.1
20260901074606 76 63 0.0 3.5 0.00 0.00 0.00 51 1020.0
20260901073103 75 328 1.7 4.3 0.00 0.00 0.00 52 1020.0
20260901071554 74 194 0.0 3.5 0.00 0.00 0.00 55 1019.9
20260901070058 72 326 0.0 2.6 0.00 0.00 0.00 59 1019.8
20260901064546 71 315 0.9 10.4 0.00 0.00 0.00 60 1019.9
20260901063046 70 319 0.0 2.6 0.00 0.00 0.00 64 1019.8
20260901061537 67 279 0.0 0.9 0.00 0.00 0.00 72 1019.9
20260901060034 65 281 0.0 0.9 0.00 0.00 0.00 76 1019.8
20260901054529 63 281 0.0 0.9 0.00 0.00 0.00 79 1019.9
20260901053033 62 281 0.0 0.9 0.00 0.00 0.00 80 1019.9
20260901051524 62 238 0.0 0.9 0.00 0.00 0.00 80 1019.8
20260901050023 61 236 0.0 0.9 0.00 0.00 0.00 80 1019.8
20260901044522 61 234 0.0 1.7 0.00 0.00 0.00 82 1019.5
20260901043022 60 236 0.0 0.0 0.00 0.00 0.00 84 1019.4
20260901041517 60 236 0.0 0.9 0.00 0.00 0.00 85 1019.3
20260901040017 60 236 0.0 0.9 0.00 0.00 0.00 86 1019.4
20260901034515 58 235 0.0 3.5 0.00 0.00 0.00 89 1019.2
20260901033013 57 238 0.0 0.9 0.00 0.00 0.00 87 1019.1
20260901031512 57 238 0.0 0.0 0.00 0.00 0.00 87 1018.8
20260901030015 59 238 0.0 0.0 0.00 0.00 0.00 87 1018.8
20260901024506 59 238 0.0 0.0 0.00 0.00 0.00 86 1018.6
20260901023003 60 238 0.0 0.9 0.00 0.00 0.00 86 1018.6
20260901021502 60 238 0.0 0.9 0.00 0.00 0.00 87 1018.7
20260901020002 60 317 0.0 0.0 0.00 0.00 0.00 88 1018.5
20260901014501 60 317 0.0 0.9 0.00 0.00 0.00 88 1018.6
20260901013108 60 317 0.0 0.0 0.00 0.00 0.00 88 1018.5
20260901011557 60 317 0.0 0.0 0.00 0.00 0.00 87 1018.3
20260901010056 61 317 0.0 0.0 0.00 0.00 0.00 87 1018.2
20260901004557 61 317 0.0 0.0 0.00 0.00 0.00 87 1018.2
20260901003108 60 317 0.0 0.0 0.00 0.00 0.00 88 1018.1
20260901001607 60 318 0.0 0.0 0.00 0.00 0.00 89 1018.2
20260901000057 61 318 0.0 0.0 0.00 0.00 0.00 89 1018.2
20260831234602 61 318 0.0 0.0 0.00 0.00 0.00 88 1018.1
20260831233051 62 318 0.0 0.0 0.00 0.00 0.00 88 1018.0
20260831231546 62 318 0.0 0.0 0.00 0.00 0.00 88 1018.1
20260831230044 63 318 0.0 0.0 0.00 0.00 0.00 87 1018.1
20260831224541 64 318 0.0 0.0 0.00 0.00 0.00 86 1018.1
20260831223038 64 318 0.0 0.0 0.00 0.00 0.00 85 1018.2
20260831221541 65 317 0.0 0.9 0.00 0.00 0.00 84 1018.2
20260831220038 65 317 0.0 0.0 0.00 0.00 0.00 86 1018.2
20260831214535 65 317 0.0 0.0 0.00 0.00 0.00 86 1018.2
20260831213038 66 317 0.0 0.0 0.00 0.00 0.00 85 1018.2
20260831211531 66 317 0.0 0.9 0.00 0.00 0.00 84 1018.1
20260831210030 67 317 0.0 0.9 0.00 0.00 0.00 82 1017.9
20260831204526 68 317 0.0 0.0 0.00 0.00 0.00 79 1017.5
20260831203024 69 320 0.0 1.7 0.00 0.00 0.00 74 1017.4
20260831201530 70 321 0.0 2.6 0.00 0.00 0.00 70 1017.3
20260831200024 73 337 0.0 0.0 0.00 0.00 0.00 66 1016.9
20260831194532 74 337 0.0 0.9 0.00 0.00 0.00 53 1016.4
20260831193019 74 337 0.0 0.9 0.00 0.00 0.00 53 1015.8
20260831191514 75 338 0.0 0.9 0.00 0.00 0.00 53 1015.4
20260831190015 74 338 0.0 0.0 0.00 0.00 0.00 53 1015.3
20260831184522 75 338 0.0 0.0 0.00 0.00 0.00 53 1015.1
20260831183015 75 338 0.0 0.0 0.00 0.00 0.00 52 1014.7
20260831181519 76 338 0.0 0.0 0.00 0.00 0.00 49 1014.5
20260831180012 77 338 0.0 0.0 0.00 0.00 0.00 47 1014.4
20260831174512 78 338 0.0 0.0 0.00 0.00 0.00 46 1014.2
20260831173012 79 338 0.0 2.6 0.00 0.00 0.00 43 1014.2
20260831171511 80 340 0.0 2.6 0.00 0.00 0.00 42 1014.2
20260831170013 81 355 0.0 2.6 0.00 0.00 0.00 41 1014.1
20260831164511 81 167 0.0 5.2 0.00 0.00 0.00 41 1014.2
20260831163013 82 360 0.0 2.6 0.00 0.00 0.00 40 1014.3
20260831161513 82 332 0.0 3.5 0.00 0.00 0.00 40 1014.4
20260831160015 82 335 0.9 7.8 0.00 0.00 0.00 39 1014.3
20260831154514 83 333 1.7 7.8 0.00 0.00 0.00 39 1014.2
20260831153009 83 5 0.9 7.0 0.00 0.00 0.00 40 1014.3
20260831151507 84 317 0.0 3.5 0.00 0.00 0.00 39 1014.4
20260831150013 85 298 0.9 8.7 0.00 0.00 0.00 38 1014.6
20260831144517 86 22 0.9 7.0 0.00 0.00 0.00 37 1014.6
20260831143006 85 341 0.9 7.0 0.00 0.00 0.00 37 1014.5
20260831141505 85 327 1.7 8.7 0.00 0.00 0.00 37 1014.6